Regional Weather Roundup
Issued by NWS Little Rock, AR

Home | Current Version | Previous Version | Graphics & Text | Print | Product List | Glossary On
Versions: 1 2 3 4 5 6 7 8 9 10 11 12 13 14 15 16 17 18 19 20 21 22 23 24 25 26 27 28 29 30 31 32 33 34 35 36 37 38 39 40 41 42 43 44 45 46 47 48 49 50
000
ASUS44 KLZK 171905
RWRLZK

WEATHER ROUNDUP FOR ARKANSAS
NATIONAL WEATHER SERVICE LITTLE ROCK AR
100 PM CST WED DEC 17 2014

NOTE: "FAIR" INDICATES FEW OR NO CLOUDS BELOW 12,000 FEET WITH NO
SIGNIFICANT WEATHER AND/OR OBSTRUCTIONS TO VISIBILITY.

ARZ001-003-010-029-172000-
NORTHWEST ARKANSAS

CITY           SKY/WX    TMP DP  RH WIND       PRES   REMARKS
FAYETTEVILLE   LGT RAIN  35  32  88 E3        30.24F
FORT SMITH     RAIN      36  32  85 E12       30.24F FOG
HARRISON       CLOUDY    35  26  69 CALM      30.26F
BENTONVILLE    CLOUDY    36  27  69 E6        30.24F
ROGERS         LGT RAIN  35  28  75 E7        30.24F WCI  29
SILOAM SPGS    CLOUDY    36  25  64 SE3       30.25F
HIGHFILL       CLOUDY    35  29  78 CALM      30.23F
SPRINGDALE     CLOUDY    34  28  80 E7        30.25F WCI  28
$$

ARZ004-005-016-172000-
NORTH CENTRAL ARKANSAS

CITY           SKY/WX    TMP DP  RH WIND       PRES   REMARKS
BATESVILLE     CLOUDY    37  27  65 CALM      30.30F
FLIPPIN        CLOUDY    36  25  64 SE3       30.28F
MTN HOME       CLOUDY    36  27  69 CALM      30.27F
$$

ARZ040-041-172000-
WEST CENTRAL ARKANSAS

CITY           SKY/WX    TMP DP  RH WIND       PRES   REMARKS
MENA           CLOUDY    37  34  87 CALM      30.26F
MOUNT IDA      CLOUDY    39  29  67 CALM      30.26F
$$

ARZ009-017-025-026-028-172000-
NORTHEAST ARKANSAS

CITY           SKY/WX    TMP DP  RH WIND       PRES   REMARKS
CORNING          N/A     37  28  70 SE3       30.30F
JONESBORO      CLOUDY    38  30  73 E7        30.30F
NEWPORT        CLOUDY    37  29  73 CALM      30.32F
WALNUT RIDGE   CLOUDY    37  27  65 CALM      30.31S
BLYTHEVILLE    CLOUDY    39  29  67 CALM      30.31F
NW BLYTHEVILLE CLOUDY    39  30  70 N3        30.31
$$

ARZ022-023-033-042-044-172000-
CENTRAL ARKANSAS

CITY           SKY/WX    TMP DP  RH WIND       PRES   REMARKS
LITTLE ROCK    CLOUDY    40  27  59 N6        30.32F
N LITTLE ROCK  CLOUDY    38  30  73 NW3       30.32F
JACKSONVILLE   CLOUDY    38  27  64 CALM      30.31F
SEARCY         CLOUDY    38  28  67 NW3       30.33F
HOT SPRINGS    CLOUDY    39  27  62 NE3       30.29F
RUSSELLVILLE   CLOUDY    39  29  67 CALM      30.30F
CLINTON        PTSUNNY   39  27  60 CALM      30.32F
$$

ARZ036-172000-
EAST ARKANSAS

CITY           SKY/WX    TMP DP  RH WIND       PRES   REMARKS
WEST MEMPHIS   CLOUDY    40  34  79 VRB5      30.28F
$$

ARZ050-053-066-070-073-172000-
SOUTHWEST ARKANSAS

CITY           SKY/WX    TMP DP  RH WIND       PRES   REMARKS
ARKADELPHIA    FAIR      40  33  76 N6        30.32F HAZE
CAMDEN         PTSUNNY   50  30  46 CALM      30.29F
TEXARKANA      CLOUDY    40  32  73 NE5       30.27F
EL DORADO      CLOUDY    47  33  58 E3        30.27F
DE QUEEN       CLOUDY    38  32  79 E8        30.28F
$$

ARZ056-057-069-172000-
SOUTHEAST ARKANSAS

CITY           SKY/WX    TMP DP  RH WIND       PRES   REMARKS
PINE BLUFF     CLOUDY    42  31  64 NE6       30.28F
STUTTGART      CLOUDY    39  28  65 N3        30.31F
MONTICELLO     MOSUNNY   47  33  58 E6        30.27F

$$




USA.gov is the U.S. government's official web portal to all federal, state and local government web resources and services.